| time (UTC) | temp C | wind direction | speed KPH | gust KPH | rain 1hr cm | rain 24hr cm | rain mn cm | humidity % | barometer mb |
| 20260505101555 | 7 | 0 | 0.0 | 0.0 | 0.00 | 0.00 | 0.00 | 92 | 1014.5 |
| 20260505100054 | 8 | 0 | 0.0 | 0.0 | 0.00 | 0.00 | 0.00 | 91 | 1014.4 |
| 20260505094552 | 8 | 0 | 0.0 | 1.6 | 0.00 | 0.00 | 0.00 | 91 | 1014.3 |
| 20260505093054 | 8 | 0 | 0.0 | 1.6 | 0.00 | 0.00 | 0.00 | 91 | 1014.3 |
| 20260505091552 | 8 | 0 | 0.0 | 3.2 | 0.00 | 0.00 | 0.00 | 91 | 1014.2 |
| 20260505090052 | 8 | 0 | 0.0 | 0.0 | 0.00 | 0.00 | 0.00 | 91 | 1014.3 |
| 20260505084552 | 8 | 0 | 0.0 | 0.0 | 0.00 | 0.00 | 0.00 | 90 | 1014.3 |
| 20260505083052 | 8 | 0 | 0.0 | 0.0 | 0.00 | 0.00 | 0.00 | 89 | 1014.3 |
| 20260505081605 | 9 | 0 | 0.0 | 0.0 | 0.00 | 0.00 | 0.00 | 89 | 1014.2 |
| 20260505080055 | 9 | 0 | 0.0 | 4.8 | 0.00 | 0.00 | 0.00 | 89 | 1013.9 |
| 20260505074558 | 8 | 0 | 0.0 | 0.0 | 0.00 | 0.00 | 0.00 | 90 | 1013.8 |
| 20260505073103 | 8 | 0 | 0.0 | 0.0 | 0.00 | 0.00 | 0.00 | 89 | 1013.7 |
| 20260505071559 | 9 | 0 | 0.0 | 0.0 | 0.00 | 0.00 | 0.00 | 89 | 1013.5 |
| 20260505070055 | 9 | 0 | 0.0 | 0.0 | 0.00 | 0.00 | 0.00 | 89 | 1013.4 |
| 20260505064554 | 9 | 0 | 0.0 | 0.0 | 0.00 | 0.00 | 0.00 | 88 | 1013.4 |
| 20260505063055 | 9 | 0 | 0.0 | 0.0 | 0.00 | 0.00 | 0.00 | 88 | 1013.4 |
| 20260505061609 | 10 | 0 | 0.0 | 0.0 | 0.00 | 0.00 | 0.00 | 87 | 1013.4 |
| 20260505060059 | 10 | 0 | 0.0 | 0.0 | 0.00 | 0.00 | 0.00 | 86 | 1013.2 |
| 20260505054625 | 10 | 0 | 0.0 | 0.0 | 0.00 | 0.00 | 0.00 | 86 | 1013.1 |
| 20260505053113 | 10 | 0 | 0.0 | 0.0 | 0.00 | 0.00 | 0.00 | 85 | 1013.0 |
| 20260505051557 | 10 | 0 | 0.0 | 0.0 | 0.00 | 0.00 | 0.00 | 84 | 1012.9 |
| 20260505041600 | 11 | 0 | 0.0 | 0.0 | 0.00 | 0.00 | 0.00 | 81 | 1012.5 |
| 20260505040101 | 11 | 0 | 0.0 | 0.0 | 0.00 | 0.00 | 0.00 | 79 | 1012.5 |
| 20260505034559 | 11 | 0 | 0.0 | 0.0 | 0.00 | 0.00 | 0.00 | 77 | 1012.4 |
| 20260505033100 | 12 | 0 | 0.0 | 1.6 | 0.00 | 0.00 | 0.00 | 76 | 1012.4 |
| 20260505031611 | 12 | 0 | 0.0 | 1.6 | 0.00 | 0.00 | 0.00 | 75 | 1012.5 |
| 20260505030059 | 12 | 79 | 0.0 | 1.6 | 0.00 | 0.00 | 0.00 | 73 | 1012.7 |
| 20260505024601 | 12 | 0 | 0.0 | 1.6 | 0.00 | 0.00 | 0.00 | 71 | 1012.4 |
| 20260505023111 | 13 | 79 | 0.0 | 1.6 | 0.00 | 0.00 | 0.00 | 70 | 1012.3 |
| 20260505021559 | 13 | 0 | 0.0 | 0.0 | 0.00 | 0.00 | 0.00 | 69 | 1012.3 |
| 20260505020057 | 13 | 0 | 0.0 | 0.0 | 0.00 | 0.00 | 0.00 | 66 | 1012.1 |
| 20260505014608 | 14 | 0 | 0.0 | 1.6 | 0.00 | 0.00 | 0.00 | 65 | 1012.1 |
| 20260505013108 | 15 | 0 | 0.0 | 1.6 | 0.00 | 0.00 | 0.00 | 62 | 1012.1 |
| 20260505011554 | 15 | 0 | 0.0 | 1.6 | 0.00 | 0.00 | 0.00 | 60 | 1012.0 |
| 20260505010053 | 16 | 0 | 0.0 | 1.6 | 0.00 | 0.00 | 0.00 | 58 | 1012.0 |
| 20260505004559 | 16 | 0 | 0.0 | 1.6 | 0.00 | 0.00 | 0.00 | 55 | 1011.7 |
| 20260505003057 | 17 | 0 | 0.0 | 1.6 | 0.00 | 0.00 | 0.00 | 53 | 1011.4 |
| 20260505001556 | 18 | 0 | 0.0 | 1.6 | 0.00 | 0.00 | 0.00 | 51 | 1011.3 |
| 20260505000112 | 20 | 0 | 0.0 | 1.6 | 0.00 | 0.00 | 0.00 | 49 | 1011.2 |
| 20260504234551 | 21 | 69 | 0.0 | 3.2 | 0.00 | 0.00 | 0.00 | 44 | 1010.9 |
| 20260504233057 | 22 | 314 | 0.0 | 3.2 | 0.00 | 0.00 | 0.00 | 39 | 1010.8 |
| 20260504231553 | 23 | 47 | 3.2 | 11.3 | 0.00 | 0.00 | 0.00 | 37 | 1010.8 |
| 20260504230108 | 23 | 68 | 4.8 | 17.7 | 0.00 | 0.00 | 0.00 | 35 | 1010.7 |
| 20260504224600 | 24 | 54 | 4.8 | 17.7 | 0.00 | 0.00 | 0.00 | 32 | 1010.8 |
| 20260504223056 | 24 | 85 | 8.0 | 24.1 | 0.00 | 0.00 | 0.00 | 34 | 1010.8 |
| 20260504221603 | 24 | 82 | 6.4 | 16.1 | 0.00 | 0.00 | 0.00 | 35 | 1010.9 |
| 20260504220101 | 24 | 49 | 11.3 | 24.1 | 0.00 | 0.00 | 0.00 | 34 | 1011.1 |
| 20260504214600 | 24 | 39 | 9.7 | 22.5 | 0.00 | 0.00 | 0.00 | 34 | 1011.1 |
| 20260504213107 | 25 | 218 | 8.0 | 20.9 | 0.00 | 0.00 | 0.00 | 33 | 1011.1 |
| 20260504211553 | 24 | 75 | 11.3 | 27.4 | 0.00 | 0.00 | 0.00 | 34 | 1011.0 |
| 20260504210104 | 25 | 44 | 8.0 | 17.7 | 0.00 | 0.00 | 0.00 | 35 | 1011.2 |
| 20260504204603 | 25 | 68 | 4.8 | 14.5 | 0.00 | 0.00 | 0.00 | 34 | 1011.0 |
| 20260504203113 | 24 | 9 | 3.2 | 17.7 | 0.00 | 0.00 | 0.00 | 36 | 1011.1 |
| 20260504201553 | 24 | 42 | 8.0 | 24.1 | 0.00 | 0.00 | 0.00 | 35 | 1011.2 |
| 20260504200055 | 23 | 115 | 4.8 | 14.5 | 0.00 | 0.00 | 0.00 | 36 | 1011.4 |
| 20260504194554 | 22 | 34 | 6.4 | 19.3 | 0.00 | 0.00 | 0.00 | 39 | 1011.6 |
| 20260504193058 | 21 | 6 | 6.4 | 27.4 | 0.00 | 0.00 | 0.00 | 42 | 1011.8 |
| 20260504191606 | 21 | 339 | 8.0 | 22.5 | 0.00 | 0.00 | 0.00 | 41 | 1011.8 |
| 20260504184555 | 22 | 22 | 12.9 | 27.4 | 0.00 | 0.00 | 0.00 | 42 | 1012.7 |
| 20260504183052 | 22 | 36 | 9.7 | 27.4 | 0.00 | 0.00 | 0.00 | 44 | 1013.0 |
| 20260504181601 | 21 | 37 | 14.5 | 32.2 | 0.00 | 0.00 | 0.00 | 44 | 1013.0 |
| 20260504180114 | 21 | 340 | 17.7 | 38.6 | 0.00 | 0.00 | 0.00 | 44 | 1013.1 |
| 20260504174553 | 21 | 98 | 6.4 | 19.3 | 0.00 | 0.00 | 0.00 | 46 | 1013.1 |
| 20260504173054 | 19 | 336 | 4.8 | 12.9 | 0.00 | 0.00 | 0.00 | 47 | 1013.4 |
| 20260504171558 | 20 | 0 | 1.6 | 6.4 | 0.00 | 0.00 | 0.00 | 47 | 1013.7 |
| 20260504140106 | 12 | 0 | 1.6 | 3.2 | 0.00 | 0.00 | 0.00 | 62 | 1016.2 |
| 20260504130112 | 9 | 0 | 0.0 | 0.0 | 0.00 | 0.00 | 0.00 | 71 | 1016.7 |